[[{"header":{"parameterUnit":"m.s-1","parameterCategory":1,"la1":30.2991,"la2":30.254,"lo1":-89.0895,"lo2":-89.0444,"dy":0.0017,"dx":0.0017,"nx":28,"ny":28,"refTime":"2025-08-30T03:00:00:Z","depth":0,"parameterNumber":2,"parameterNumberName":"U-component_of_WINDS"},"data":[0,0,0,0,0,0,0,0,0,0,0,0,0,0,0,0,0,0,0,0,0,0,0,0,0,0,0,0,0,0,0,0,0,0,0,0,0,0,0,0,0,0,0,0,0,0,0,0,0,0,0,0,0,0,0,0,0,0,2.2367,2.2369,0,2.251,2.2512,2.2513,2.2497,2.2495,2.2492,2.249,2.2637,2.2643,2.2649,0,0,0,0,0,0,0,0,0,0,0,0,0,2.2082,2.2088,2.2367,2.2369,2.2371,2.251,2.2512,2.2514,2.2497,2.2495,2.2492,2.2489,2.2635,2.2643,2.265,0,0,0,0,0,0,0,0,0,0,0,0,0,2.2214,2.2089,2.2367,2.2379,2.2382,2.2509,2.2512,2.2514,2.2498,2.2494,2.2491,2.2488,2.2633,2.2642,2.2651,2.2775,0,0,2.2679,2.2683,0,0,0,0,0,0,0,0,2.2206,2.2224,2.2376,2.2379,2.2382,2.2482,2.2465,2.2602,2.2499,2.2454,2.249,2.2486,2.2589,2.2601,2.2635,2.2782,2.2789,2.2679,2.2685,2.2689,2.2691,0,0,0,0,0,0,0,2.2197,2.2218,2.2424,2.2378,2.2382,2.2378,2.2393,2.2491,2.2539,2.2457,2.2457,2.2474,2.259,2.2627,2.2639,2.2791,2.2679,2.2687,2.2693,2.2696,2.305,2.3054,0,0,0,0,0,0,2.2185,2.221,2.2419,2.2428,2.2284,2.2386,2.2403,2.2453,2.2538,2.2547,2.2476,2.2472,2.2613,2.2628,2.2644,2.2797,2.2689,2.2697,2.2702,2.3046,2.3051,2.3055,0,0,0,0,0,0,2.2179,2.2203,2.2413,2.2319,2.2346,2.2395,2.2452,2.2458,2.2495,2.2552,2.2561,2.2506,2.2611,2.2631,2.2743,2.2802,2.2701,2.271,2.3041,2.3047,2.3053,2.3102,0,0,0,0,0,0,2.2171,2.2201,2.2248,2.232,2.2351,2.251,2.2455,2.2463,2.2511,2.2507,2.2582,2.2591,2.261,2.273,2.2752,2.2812,2.2717,2.3036,2.3044,2.3051,2.3096,2.3109,2.3121,0,0,0,0,0,2.216,2.2257,2.2251,2.2276,2.241,2.2513,2.253,2.255,2.2515,2.2564,2.2601,2.2588,2.2792,2.2742,2.2767,2.283,2.3033,2.3042,2.305,2.309,2.3107,2.3121,0,0,0,0,0,0,2.219,2.2266,2.2261,2.2383,2.2442,2.251,2.2571,2.2567,2.2637,2.263,2.2652,2.2669,2.2783,2.2818,2.2761,2.2957,2.2908,2.2922,2.2929,2.2945,2.2958,2.2947,2.2724,0,0,0,0,0,2.2211,2.2287,2.235,2.2451,2.2481,2.2522,2.2567,2.2577,2.2639,2.2664,2.2709,2.277,2.2848,2.2899,2.2973,2.3101,2.3118,2.3157,2.317,2.318,2.3192,2.3264,2.3283,2.3084,2.3084,2.3084,0,0,2.2254,2.2305,2.2352,2.2459,2.2505,2.2585,2.2542,2.2628,2.2687,2.2677,2.2786,2.2821,2.2891,2.3012,2.3068,2.3045,2.3251,2.3191,2.3199,2.3206,2.3275,2.3294,2.3311,2.309,2.3089,2.3088,0,0,2.2374,2.242,2.2511,2.2559,2.2631,2.2657,2.2679,2.2749,2.2772,2.2882,2.2876,2.2948,2.3081,2.3132,2.3175,2.3317,2.3309,2.3341,2.3406,2.3476,2.3492,2.3506,2.3558,2.3576,2.3353,2.3353,2.3353,0,2.2419,2.2538,2.2558,2.2645,2.2693,2.2687,2.278,2.2826,2.2919,2.2952,2.2925,2.3094,2.314,2.3274,2.3309,2.3344,2.337,2.3332,2.3488,2.3502,2.3516,2.3565,2.3585,2.3356,2.3356,2.3356,2.3355,0,2.2591,2.2674,2.2739,2.2828,2.2884,2.2973,2.3007,2.3061,2.3067,2.3097,2.321,2.3266,2.3353,2.3385,2.3392,2.3521,2.3505,2.3483,2.3434,2.3538,2.3585,2.3604,2.3361,2.336,2.3359,2.3358,0,0,2.2732,2.2833,2.2857,2.2898,2.2978,2.3043,2.3133,2.3218,2.3264,2.3329,2.3406,2.352,2.3501,2.355,2.3563,2.3624,2.3735,2.3595,2.3597,2.362,2.3882,2.3898,2.392,2.373,2.3734,2.3737,2.3877,0,2.286,2.3019,2.304,2.3181,2.3259,2.3256,2.3335,2.3393,2.3424,2.3496,2.353,2.3611,2.3579,2.3609,2.367,2.3708,2.3788,2.3699,2.3803,2.3806,2.3785,2.3944,2.3961,2.409,2.3895,2.3898,2.39,0,2.3031,2.3101,2.3249,2.3321,2.3354,2.3424,2.3505,2.3573,2.364,2.3658,2.3714,2.372,2.3814,2.3762,2.3894,2.3833,2.3877,2.3903,2.3909,2.3919,2.3859,2.3959,2.4132,2.4151,2.3929,2.3927,2.3925,0,2.312,2.3251,2.3358,2.3393,2.3478,2.3528,2.3566,2.363,2.368,2.3751,2.3784,2.3866,2.391,2.3974,2.4002,2.3961,2.4133,2.4082,2.4151,2.4151,2.4187,2.4184,2.4369,2.4215,2.4215,2.4215,2.4214,0,2.3261,2.3352,2.3399,2.3464,2.3567,2.3592,2.3693,2.373,2.3787,2.386,2.3863,2.3932,2.3965,2.404,2.4063,2.4169,2.4189,2.4207,2.4212,2.4207,2.4205,2.4236,2.4228,2.422,2.4219,2.4218,2.4217,0,2.3377,2.3412,2.3528,2.36,2.362,2.3693,2.3755,2.3819,2.385,2.3944,2.3967,2.4016,2.4104,2.4139,2.4246,2.4262,2.4385,2.4383,2.4362,2.4364,2.4431,2.4425,2.4643,2.4673,2.4499,2.4501,2.4502,0,2.3465,2.3535,2.3615,2.3664,2.3704,2.3783,2.3835,2.3863,2.3917,2.4,2.4055,2.4143,2.4214,2.4356,2.4402,2.4485,2.4485,2.4556,2.4498,2.4491,2.4487,2.4483,2.4491,2.4566,2.4568,2.457,2.4571,0,2.3617,2.3631,2.3705,2.3787,2.3849,2.3914,2.3978,2.4018,2.4056,2.4117,2.4207,2.4263,2.4374,2.4462,2.4548,2.4588,2.4587,2.4589,2.461,2.4605,2.4591,2.46,2.4392,2.4584,2.4582,2.4582,2.4581,2.458,2.3722,2.3785,2.3852,2.3935,2.3986,2.4046,2.411,2.415,2.4226,2.4318,2.433,2.4427,2.4495,2.461,2.4655,2.4732,2.4713,2.4743,2.475,2.4757,2.4762,2.4579,2.4748,2.4747,2.4747,2.4747,2.4747,0,2.3875,2.3918,2.3994,2.4084,2.415,2.4143,2.4214,2.427,2.4355,2.4418,2.4489,2.4594,2.468,2.4734,2.4821,2.4873,2.4874,2.4895,2.4891,2.4901,2.4774,2.4747,2.4892,2.4892,2.4892,2.4892,2.4892,2.4892,2.3962,2.4069,2.4091,2.4224,2.4267,2.4362,2.4404,2.446,2.451,2.4627,2.4699,2.4733,2.4793,2.4885,2.4964,2.4978,2.501,2.5032,2.5044,2.4924,2.4909,2.4895,2.4871,2.5039,2.5039,2.5165,2.5166,2.5167]},{"header":{"parameterUnit":"m.s-1","parameterCategory":1,"la1":30.2991,"la2":30.254,"lo1":-89.0895,"lo2":-89.0444,"dy":0.0017,"dx":0.0017,"nx":28,"ny":28,"refTime":"2025-08-30T03:00:00:Z","depth":0,"parameterNumber":3,"parameterNumberName":"V-component_of_WINDS"},"data":[0,0,0,0,0,0,0,0,0,0,0,0,0,0,0,0,0,0,0,0,0,0,0,0,0,0,0,0,0,0,0,0,0,0,0,0,0,0,0,0,0,0,0,0,0,0,0,0,0,0,0,0,0,0,0,0,0,0,-0.5884,-0.5884,0,-0.5882,-0.5882,-0.5882,-0.59,-0.5901,-0.5901,-0.5902,-0.5897,-0.5897,-0.5896,0,0,0,0,0,0,0,0,0,0,0,0,0,-0.5902,-0.5901,-0.5884,-0.5884,-0.5884,-0.5882,-0.5882,-0.5882,-0.59,-0.5901,-0.5901,-0.5902,-0.5897,-0.5897,-0.5896,0,0,0,0,0,0,0,0,0,0,0,0,0,-0.5896,-0.5901,-0.5884,-0.5893,-0.5894,-0.5882,-0.5882,-0.5882,-0.59,-0.5901,-0.5902,-0.5902,-0.5898,-0.5897,-0.5896,-0.5875,0,0,-0.5893,-0.5893,0,0,0,0,0,0,0,0,-0.5897,-0.5896,-0.5892,-0.5893,-0.5893,-0.5892,-0.5887,-0.588,-0.59,-0.5898,-0.5902,-0.5903,-0.5895,-0.5894,-0.5892,-0.5875,-0.5875,-0.5893,-0.5893,-0.5892,-0.5892,0,0,0,0,0,0,0,-0.5897,-0.5896,-0.5883,-0.5892,-0.5893,-0.5896,-0.5897,-0.5885,-0.5892,-0.5898,-0.5899,-0.5899,-0.5895,-0.5893,-0.5892,-0.5875,-0.5893,-0.5892,-0.5892,-0.5891,-0.5839,-0.5838,0,0,0,0,0,0,-0.5897,-0.5896,-0.5884,-0.5883,-0.5897,-0.5896,-0.5896,-0.5892,-0.5892,-0.5893,-0.5898,-0.59,-0.5894,-0.5893,-0.5892,-0.5867,-0.5892,-0.5891,-0.5891,-0.584,-0.5839,-0.5838,0,0,0,0,0,0,-0.5897,-0.5895,-0.5884,-0.589,-0.5889,-0.5894,-0.589,-0.5891,-0.5889,-0.5892,-0.5893,-0.5895,-0.5895,-0.5893,-0.5879,-0.5867,-0.5891,-0.589,-0.5841,-0.5839,-0.5838,-0.5816,0,0,0,0,0,0,-0.5897,-0.5895,-0.5888,-0.589,-0.5889,-0.5871,-0.5889,-0.5891,-0.5888,-0.589,-0.5889,-0.589,-0.5895,-0.588,-0.5878,-0.5866,-0.5889,-0.5842,-0.584,-0.5839,-0.5818,-0.5814,-0.5811,0,0,0,0,0,-0.5898,-0.5881,-0.5887,-0.5886,-0.588,-0.5871,-0.587,-0.5877,-0.5887,-0.5879,-0.5881,-0.589,-0.5869,-0.5879,-0.5876,-0.5864,-0.5843,-0.5841,-0.5839,-0.5819,-0.5815,-0.5811,0,0,0,0,0,0,-0.5877,-0.5882,-0.5888,-0.5872,-0.5871,-0.5874,-0.5864,-0.5872,-0.5867,-0.5869,-0.5877,-0.5877,-0.5861,-0.5861,-0.5872,-0.5843,-0.5857,-0.5855,-0.5843,-0.5839,-0.5836,-0.5835,-0.5889,0,0,0,0,0,-0.5871,-0.5864,-0.5868,-0.5853,-0.5852,-0.5858,-0.5855,-0.586,-0.5859,-0.5858,-0.5859,-0.5857,-0.585,-0.5845,-0.5838,-0.5819,-0.5818,-0.5809,-0.5805,-0.5802,-0.58,-0.5788,-0.5784,-0.5832,-0.5832,-0.5832,0,0,-0.5857,-0.5859,-0.5854,-0.5849,-0.5849,-0.584,-0.5858,-0.5848,-0.5842,-0.5856,-0.5843,-0.5844,-0.5842,-0.5824,-0.5817,-0.5824,-0.5786,-0.58,-0.5798,-0.5796,-0.5786,-0.5781,-0.5777,-0.583,-0.583,-0.5831,0,0,-0.5828,-0.5829,-0.5816,-0.5816,-0.5815,-0.582,-0.5817,-0.5818,-0.5819,-0.5806,-0.5817,-0.5809,-0.5797,-0.5795,-0.5792,-0.5762,-0.577,-0.576,-0.5741,-0.573,-0.5726,-0.5723,-0.5711,-0.5706,-0.5757,-0.5757,-0.5757,0,-0.581,-0.5799,-0.5809,-0.5799,-0.5796,-0.581,-0.5797,-0.5795,-0.5792,-0.579,-0.5798,-0.5783,-0.5782,-0.5764,-0.5757,-0.5755,-0.575,-0.5759,-0.5726,-0.5723,-0.572,-0.5708,-0.5704,-0.5756,-0.5756,-0.5756,-0.5756,0,-0.5778,-0.577,-0.5759,-0.5757,-0.5753,-0.5742,-0.5748,-0.5743,-0.575,-0.5752,-0.5738,-0.5739,-0.5732,-0.5729,-0.5734,-0.5711,-0.5715,-0.5725,-0.5739,-0.5714,-0.5703,-0.5699,-0.5754,-0.5755,-0.5755,-0.5755,0,0,-0.5734,-0.5737,-0.5733,-0.5732,-0.5733,-0.5726,-0.5715,-0.571,-0.5704,-0.5702,-0.5692,-0.5681,-0.569,-0.5687,-0.5693,-0.5683,-0.5658,-0.5694,-0.5694,-0.5686,-0.563,-0.5622,-0.5617,-0.5663,-0.5663,-0.5662,-0.563,0,-0.5704,-0.5686,-0.5694,-0.5674,-0.5666,-0.568,-0.567,-0.5669,-0.5671,-0.5664,-0.5667,-0.5659,-0.5672,-0.567,-0.5661,-0.5663,-0.5646,-0.5665,-0.5653,-0.5652,-0.5651,-0.5612,-0.5603,-0.5573,-0.5626,-0.5625,-0.5625,0,-0.5667,-0.5664,-0.5643,-0.5645,-0.5642,-0.5633,-0.5629,-0.5622,-0.5621,-0.5623,-0.562,-0.5628,-0.5616,-0.5631,-0.5614,-0.5627,-0.5622,-0.5622,-0.5621,-0.5619,-0.5636,-0.5607,-0.5563,-0.5558,-0.5619,-0.5619,-0.562,0,-0.5635,-0.5626,-0.5613,-0.5611,-0.5613,-0.5607,-0.5607,-0.5607,-0.5603,-0.5598,-0.5596,-0.559,-0.5586,-0.5581,-0.5587,-0.5598,-0.5568,-0.5584,-0.5569,-0.5568,-0.556,-0.556,-0.5514,-0.556,-0.556,-0.556,-0.556,0,-0.5601,-0.5587,-0.5598,-0.559,-0.5575,-0.5585,-0.5569,-0.5571,-0.5571,-0.5562,-0.5573,-0.5565,-0.5574,-0.5565,-0.557,-0.5554,-0.5553,-0.5553,-0.5554,-0.5551,-0.5551,-0.5547,-0.5549,-0.5559,-0.5559,-0.556,-0.556,0,-0.5562,-0.5569,-0.5555,-0.5559,-0.5559,-0.5548,-0.555,-0.5542,-0.5546,-0.5535,-0.5532,-0.5538,-0.5529,-0.5535,-0.5525,-0.5528,-0.5507,-0.5512,-0.5508,-0.5508,-0.5492,-0.5492,-0.544,-0.5432,-0.5485,-0.5484,-0.5484,0,-0.5538,-0.5529,-0.5531,-0.5527,-0.5527,-0.5519,-0.5515,-0.5525,-0.552,-0.5518,-0.5509,-0.5502,-0.5496,-0.548,-0.5483,-0.5475,-0.5479,-0.5461,-0.5478,-0.5475,-0.5477,-0.5477,-0.5475,-0.5457,-0.5456,-0.5456,-0.5456,0,-0.5495,-0.55,-0.5494,-0.549,-0.5485,-0.5482,-0.5479,-0.5475,-0.5484,-0.5478,-0.5469,-0.5465,-0.5456,-0.5447,-0.5441,-0.5441,-0.5449,-0.5451,-0.5446,-0.5442,-0.5439,-0.5439,-0.5497,-0.5451,-0.5452,-0.5452,-0.5452,-0.5452,-0.5463,-0.5454,-0.5455,-0.5448,-0.5447,-0.5445,-0.5437,-0.544,-0.5434,-0.5427,-0.5433,-0.5423,-0.5421,-0.5414,-0.5412,-0.5403,-0.541,-0.5404,-0.5402,-0.54,-0.5397,-0.5442,-0.5402,-0.5402,-0.5402,-0.5402,-0.5403,0,-0.5419,-0.542,-0.5414,-0.5411,-0.5405,-0.5415,-0.5413,-0.5407,-0.5398,-0.5397,-0.5391,-0.538,-0.5372,-0.5375,-0.5367,-0.5359,-0.5363,-0.5357,-0.5356,-0.5356,-0.5392,-0.5396,-0.5354,-0.5354,-0.5354,-0.5354,-0.5354,-0.5354,-0.5395,-0.5381,-0.5385,-0.5371,-0.5372,-0.5362,-0.536,-0.5357,-0.5356,-0.5344,-0.5338,-0.534,-0.5339,-0.5332,-0.5325,-0.5325,-0.5321,-0.5313,-0.5315,-0.5349,-0.5353,-0.5358,-0.5361,-0.5313,-0.5313,-0.5279,-0.5279,-0.5279]}]]